Overview Statistics Trail Chart Weather Telemetry Raw packets
 

This is the latest recevied weather packets stored in our database for station/object DC9VQ-13. If no packets are shown the sender has not sent any weather packets the latest 10 day(s).

<< 17 18 19 20 21 22 23 >>
Time Temp. Humidity Pressure Rain* Wind** Luminosity Snow
1788369407 24.44° C 48% 1020.7 hPa 0 mm - - -
1788368805 25° C 48% 1020.6 hPa 0 mm - - -
1788368202 25° C 46% 1020.5 hPa 0 mm - - -
1788367601 25.56° C 45% 1020.5 hPa 0 mm - - -
1788366999 25.56° C 45% 1020.5 hPa 0 mm - - -
1788366397 25.56° C 46% 1020.4 hPa 0 mm - - -
1788365795 25.56° C 44% 1020.4 hPa 0 mm - - -
1788365193 26.11° C 43% 1020.4 hPa 0 mm - - -
1788364591 26.67° C 43% 1020.4 hPa 0 mm - - -
1788363989 27.22° C 42% 1020.3 hPa 0 mm - - -
1788363386 27.22° C 40% 1020.3 hPa 0 mm - - -
1788362785 26.67° C 41% 1020.5 hPa 0 mm - - -
1788362182 26.67° C 43% 1020.4 hPa 0 mm - - -
1788361581 26.11° C 42% 1020.5 hPa 0 mm - - -
1788360978 25.56° C 43% 1020.6 hPa 0 mm - - -
1788360377 25.56° C 44% 1020.6 hPa 0 mm - - -
1788359775 25.56° C 42% 1020.6 hPa 0 mm - - -
1788359173 25° C 47% 1020.4 hPa 0 mm - - -
1788358571 24.44° C 49% 1020.4 hPa 0 mm - - -
1788357969 24.44° C 49% 1020.5 hPa 0 mm - - -
1788357367 24.44° C 46% 1020.5 hPa 0 mm - - -
1788356765 25° C 50% 1020.5 hPa 0 mm - - -
1788356162 24.44° C 49% 1020.4 hPa 0 mm - - -
1788355571 24.44° C 50% 1020.5 hPa 0 mm - - -
1788354959 24.44° C 49% 1020.6 hPa 0 mm - - -

* Rain latest hour (hover to see other rain measurements)
** Current wind speed in m/s (hover to see current wind gust speed)